[[{"header":{"parameterUnit":"m.s-1","parameterCategory":1,"la1":30.2991,"la2":30.254,"lo1":-89.0895,"lo2":-89.0444,"dx":0.0017,"dy":0.0017,"nx":28,"ny":28,"refTime":"2022-12-23T15:00:00:Z","depth":0,"parameterNumber":2,"parameterNumberName":"U-component_of_WINDS"},"data":[0,0,0,0,0,0,0,0,0,0,0,0,0,0,0,0,0,0,0,0,0,0,0,0,0,0,0,0,0,0,0,0,0,0,0,0,0,0,0,0,0,0,0,0,0,0,0,0,0,0,0,0,0,0,0,0,0,0,2.5439,2.5439,0,2.5459,2.5459,2.5459,2.5439,2.5438,2.5437,2.5437,2.5456,2.5457,2.5458,0,0,0,0,0,0,0,0,0,0,0,0,0,2.5382,2.5384,2.5439,2.5439,2.5439,2.5459,2.5459,2.5459,2.5439,2.5438,2.5437,2.5436,2.5455,2.5457,2.5458,0,0,0,0,0,0,0,0,0,0,0,0,0,2.5405,2.5384,2.5439,2.5431,2.5431,2.5459,2.5459,2.5459,2.5439,2.5438,2.5437,2.5436,2.5455,2.5457,2.5459,2.5494,0,0,2.5464,2.5465,0,0,0,0,0,0,0,0,2.5404,2.5407,2.5432,2.5432,2.5432,2.5445,2.5446,2.5471,2.544,2.5436,2.5437,2.5435,2.5453,2.5455,2.5461,2.5495,2.5495,2.5464,2.5466,2.5466,2.5467,0,0,0,0,0,0,0,2.5402,2.5406,2.5447,2.5433,2.5432,2.5427,2.5429,2.5451,2.5451,2.5436,2.5435,2.5438,2.5453,2.546,2.5462,2.5496,2.5464,2.5466,2.5467,2.5468,2.556,2.5561,0,0,0,0,0,0,2.5402,2.5405,2.5446,2.5447,2.5415,2.5429,2.5431,2.5442,2.5451,2.5451,2.5439,2.5437,2.5457,2.546,2.5462,2.5504,2.5466,2.5468,2.5469,2.5559,2.556,2.5562,0,0,0,0,0,0,2.54,2.5405,2.5445,2.5426,2.543,2.5431,2.5444,2.5443,2.545,2.5453,2.5452,2.5446,2.5456,2.546,2.5486,2.5505,2.5469,2.5471,2.5557,2.5559,2.5561,2.5589,0,0,0,0,0,0,2.5399,2.5405,2.5418,2.5426,2.5432,2.5469,2.5445,2.5444,2.5453,2.5451,2.5459,2.5459,2.5456,2.5484,2.5488,2.5507,2.5472,2.5556,2.5558,2.5561,2.5586,2.5592,2.5596,0,0,0,0,0,2.5397,2.5425,2.5419,2.5424,2.5448,2.547,2.5473,2.5469,2.5455,2.5468,2.547,2.5459,2.5503,2.5487,2.5492,2.5511,2.5554,2.5557,2.556,2.5584,2.5591,2.5596,0,0,0,0,0,0,2.5418,2.5426,2.5419,2.5451,2.546,2.5467,2.5483,2.5476,2.5488,2.5485,2.5479,2.5481,2.551,2.5513,2.5495,2.5546,2.5526,2.553,2.5543,2.5549,2.5554,2.5552,2.5474,0,0,0,0,0,2.5427,2.5444,2.545,2.5477,2.5482,2.5482,2.5491,2.5487,2.5496,2.55,2.5504,2.5513,2.5529,2.5539,2.5554,2.5587,2.5589,2.5603,2.5608,2.5612,2.5615,2.5634,2.5641,2.5572,2.5572,2.5572,0,0,2.5444,2.545,2.5461,2.5481,2.5488,2.5506,2.5485,2.5505,2.5518,2.5503,2.5528,2.5532,2.5542,2.5572,2.5586,2.5576,2.5635,2.5616,2.5619,2.562,2.5638,2.5644,2.565,2.5574,2.5573,2.5573,0,0,2.5484,2.5491,2.5514,2.5522,2.5533,2.5534,2.5539,2.5548,2.555,2.5576,2.5565,2.5581,2.5608,2.5616,2.5623,2.5669,2.5659,2.5674,2.5699,2.5718,2.5723,2.5728,2.5744,2.575,2.5678,2.5678,2.5678,0,2.5504,2.5531,2.5527,2.5548,2.5558,2.5546,2.557,2.5578,2.5593,2.5599,2.5588,2.5623,2.5629,2.5661,2.5673,2.568,2.5686,2.5672,2.5723,2.5727,2.5732,2.5747,2.5753,2.5679,2.5679,2.5679,2.5679,0,2.5555,2.5574,2.5592,2.5608,2.5619,2.5642,2.5642,2.5654,2.565,2.5651,2.5678,2.5685,2.5701,2.5709,2.5705,2.5742,2.5735,2.5724,2.5703,2.574,2.5755,2.576,2.5682,2.5681,2.5681,2.568,0,0,2.5607,2.5622,2.5629,2.5636,2.5649,2.5664,2.5686,2.5703,2.5713,2.5725,2.5743,2.5768,2.5758,2.5766,2.5763,2.5779,2.5816,2.5766,2.5766,2.5775,2.5857,2.5865,2.5872,2.581,2.5811,2.5812,2.5856,0,2.5648,2.5687,2.5685,2.5722,2.574,2.573,2.575,2.576,2.5763,2.5778,2.5781,2.5798,2.5784,2.5789,2.5805,2.5808,2.5832,2.5805,2.5827,2.5828,2.5824,2.5879,2.5888,2.5929,2.5862,2.5863,2.5863,0,2.57,2.5714,2.5753,2.5764,2.5772,2.5789,2.5805,2.582,2.5832,2.5833,2.5844,2.5838,2.5861,2.5841,2.5873,2.5855,2.5864,2.5867,2.5868,2.5869,2.5847,2.5881,2.5942,2.5948,2.5872,2.5872,2.5871,0,2.5734,2.5763,2.579,2.5797,2.5811,2.5823,2.583,2.584,2.5851,2.5865,2.5872,2.5888,2.5897,2.591,2.5909,2.5895,2.5941,2.5921,2.5942,2.5942,2.5951,2.595,2.6013,2.5959,2.5959,2.5959,2.5958,0,2.5779,2.5803,2.5806,2.5822,2.5849,2.5848,2.5874,2.5879,2.5889,2.5906,2.5899,2.5916,2.5914,2.5931,2.5931,2.5957,2.5961,2.5962,2.5962,2.5963,2.5962,2.5967,2.5964,2.596,2.596,2.596,2.5959,0,2.582,2.5823,2.5852,2.5864,2.5867,2.5887,2.5896,2.5912,2.5915,2.5937,2.5943,2.5947,2.5966,2.5968,2.599,2.599,2.6022,2.6018,2.6018,2.6017,2.6038,2.6036,2.6105,2.6114,2.6055,2.6055,2.6056,0,2.5848,2.5867,2.5881,2.5892,2.59,2.5918,2.593,2.593,2.5942,2.5957,2.5971,2.5991,2.6006,2.6037,2.6042,2.606,2.6056,2.608,2.6059,2.6059,2.6056,2.6055,2.6056,2.6083,2.6084,2.6084,2.6085,0,2.5897,2.5899,2.5916,2.5934,2.5948,2.5962,2.5975,2.5985,2.5986,2.6,2.6021,2.6033,2.6056,2.6075,2.6093,2.6099,2.6092,2.6092,2.6097,2.6098,2.6096,2.6097,2.6028,2.609,2.6089,2.6089,2.6089,2.6088,2.5933,2.5949,2.5962,2.5981,2.5992,2.6005,2.602,2.6026,2.6043,2.6063,2.6062,2.6085,2.6097,2.612,2.6128,2.6145,2.6137,2.6146,2.6147,2.6149,2.6151,2.6095,2.6149,2.6148,2.6148,2.6148,2.6148,0,2.5981,2.599,2.6008,2.6027,2.6043,2.6037,2.6051,2.6064,2.6085,2.6097,2.6113,2.6137,2.6156,2.6163,2.6182,2.6195,2.6192,2.6199,2.6198,2.62,2.6158,2.6151,2.6201,2.6201,2.6201,2.6201,2.6201,2.6201,2.6008,2.6036,2.6039,2.6072,2.608,2.6103,2.6112,2.6124,2.6134,2.6161,2.6177,2.6183,2.6193,2.6213,2.623,2.6232,2.6238,2.6247,2.6247,2.6208,2.6202,2.6197,2.6191,2.6249,2.6249,2.6288,2.6288,2.6288]},{"header":{"parameterUnit":"m.s-1","parameterCategory":1,"la1":30.2991,"la2":30.254,"lo1":-89.0895,"lo2":-89.0444,"dx":0.0017,"dy":0.0017,"nx":28,"ny":28,"refTime":"2022-12-23T15:00:00:Z","depth":0,"parameterNumber":3,"parameterNumberName":"V-component_of_WINDS"},"data":[0,0,0,0,0,0,0,0,0,0,0,0,0,0,0,0,0,0,0,0,0,0,0,0,0,0,0,0,0,0,0,0,0,0,0,0,0,0,0,0,0,0,0,0,0,0,0,0,0,0,0,0,0,0,0,0,0,0,-7.8802,-7.8804,0,-7.8964,-7.8966,-7.8967,-7.8893,-7.8889,-7.8885,-7.8881,-7.9043,-7.9051,-7.9059,0,0,0,0,0,0,0,0,0,0,0,0,0,-7.8426,-7.8434,-7.8802,-7.8804,-7.8806,-7.8964,-7.8966,-7.8968,-7.8893,-7.8888,-7.8883,-7.8879,-7.9041,-7.905,-7.906,0,0,0,0,0,0,0,0,0,0,0,0,0,-7.8589,-7.8436,-7.8802,-7.8788,-7.8788,-7.8963,-7.8966,-7.8968,-7.8894,-7.8888,-7.8882,-7.8876,-7.9037,-7.9049,-7.9061,-7.9258,0,0,-7.9098,-7.9104,0,0,0,0,0,0,0,0,-7.858,-7.8603,-7.8788,-7.8789,-7.879,-7.8902,-7.8893,-7.9065,-7.8896,-7.8854,-7.8881,-7.8874,-7.9001,-7.9016,-7.9059,-7.9266,-7.9273,-7.9099,-7.9107,-7.9112,-7.9115,0,0,0,0,0,0,0,-7.8569,-7.8595,-7.8866,-7.8791,-7.8792,-7.8773,-7.8789,-7.8925,-7.8959,-7.8857,-7.8852,-7.8872,-7.9,-7.9048,-7.9063,-7.9275,-7.9099,-7.911,-7.9117,-7.9122,-7.9651,-7.9657,0,0,0,0,0,0,-7.8558,-7.8586,-7.8861,-7.8871,-7.8668,-7.8785,-7.8803,-7.8872,-7.8958,-7.8965,-7.8878,-7.8868,-7.903,-7.9048,-7.9068,-7.9304,-7.9112,-7.9123,-7.913,-7.9644,-7.9652,-7.966,0,0,0,0,0,0,-7.855,-7.8583,-7.8854,-7.8727,-7.876,-7.8798,-7.8876,-7.8878,-7.8926,-7.8973,-7.8979,-7.892,-7.9026,-7.9051,-7.9212,-7.9309,-7.9129,-7.914,-7.9636,-7.9647,-7.9656,-7.9779,0,0,0,0,0,0,-7.854,-7.8581,-7.8657,-7.873,-7.8768,-7.8997,-7.8882,-7.8886,-7.8947,-7.8937,-7.9014,-7.9021,-7.9023,-7.9194,-7.9224,-7.9322,-7.9149,-7.9628,-7.9641,-7.9653,-7.9766,-7.9792,-7.9814,0,0,0,0,0,-7.8527,-7.8684,-7.8661,-7.8694,-7.8863,-7.9002,-7.9024,-7.9023,-7.8956,-7.9032,-7.9062,-7.9019,-7.9293,-7.9211,-7.9244,-7.9348,-7.9622,-7.9637,-7.9652,-7.9755,-7.9787,-7.9813,0,0,0,0,0,0,-7.862,-7.8693,-7.8668,-7.8854,-7.8923,-7.8989,-7.9085,-7.9056,-7.9145,-7.9131,-7.9126,-7.9144,-7.9311,-7.9345,-7.9252,-7.9543,-7.9447,-7.9469,-7.9514,-7.9545,-7.9568,-7.9556,-7.9159,0,0,0,0,0,-7.8663,-7.8771,-7.8828,-7.8986,-7.9022,-7.9048,-7.9109,-7.9103,-7.9173,-7.9201,-7.9243,-7.9312,-7.9414,-7.9481,-7.9577,-7.977,-7.9786,-7.9858,-7.9882,-7.9901,-7.9921,-8.0026,-8.0059,-7.971,-7.9709,-7.9709,0,0,-7.8751,-7.8805,-7.8873,-7.9007,-7.9059,-7.917,-7.9073,-7.9194,-7.9276,-7.9219,-7.9374,-7.9407,-7.9484,-7.9662,-7.9743,-7.9696,-8.0021,-7.9921,-7.9936,-7.9945,-8.0045,-8.0078,-8.0107,-7.972,-7.9718,-7.9716,0,0,-7.897,-7.9021,-7.9159,-7.9213,-7.9294,-7.9311,-7.9344,-7.9415,-7.9436,-7.9591,-7.955,-7.9647,-7.9823,-7.9879,-7.9931,-8.0171,-8.0135,-8.0202,-8.0327,-8.0429,-8.0457,-8.0481,-8.0567,-8.0598,-8.0222,-8.0222,-8.0222,0,-7.9069,-7.9236,-7.9233,-7.9358,-7.9418,-7.9373,-7.9512,-7.9565,-7.9672,-7.9715,-7.9661,-7.9881,-7.9929,-8.012,-8.0178,-8.0222,-8.0259,-8.0194,-8.0453,-8.0478,-8.05,-8.0582,-8.0615,-8.023,-8.0229,-8.0228,-8.0227,0,-7.9355,-7.9471,-7.9572,-7.9679,-7.975,-7.9882,-7.9898,-7.9971,-7.9958,-7.998,-8.0139,-8.0195,-8.0302,-8.0347,-8.0336,-8.0537,-8.0505,-8.0453,-8.0357,-8.0541,-8.0618,-8.065,-8.0241,-8.0238,-8.0236,-8.0234,0,0,-7.9637,-7.974,-7.9778,-7.9826,-7.9912,-8.0001,-8.013,-8.0236,-8.0298,-8.0374,-8.0482,-8.0632,-8.0584,-8.0643,-8.0637,-8.0727,-8.0915,-8.0664,-8.0665,-8.0709,-8.114,-8.1179,-8.1216,-8.0891,-8.0897,-8.0902,-8.1134,0,-7.9861,-8.0089,-8.0091,-8.03,-8.0407,-8.0365,-8.0478,-8.0542,-8.0566,-8.066,-8.0685,-8.0792,-8.072,-8.0756,-8.0843,-8.0873,-8.1001,-8.0857,-8.0991,-8.0996,-8.0974,-8.1256,-8.1298,-8.1514,-8.1164,-8.1169,-8.1172,0,-8.0154,-8.0241,-8.0462,-8.0533,-8.0578,-8.0679,-8.0776,-8.0866,-8.0938,-8.0949,-8.1016,-8.0996,-8.1127,-8.1027,-8.1207,-8.1109,-8.1164,-8.1187,-8.1195,-8.1208,-8.1096,-8.1277,-8.1583,-8.1616,-8.122,-8.1216,-8.1212,0,-8.0339,-8.051,-8.0665,-8.0707,-8.0793,-8.0865,-8.0905,-8.0971,-8.1034,-8.1119,-8.116,-8.1258,-8.1313,-8.1389,-8.1396,-8.1323,-8.1578,-8.1478,-8.159,-8.159,-8.1646,-8.1643,-8.1967,-8.1681,-8.1681,-8.168,-8.1679,0,-8.059,-8.0727,-8.0749,-8.0844,-8.0995,-8.0995,-8.1145,-8.1178,-8.1237,-8.1337,-8.1306,-8.1401,-8.1405,-8.1501,-8.1508,-8.1656,-8.1681,-8.1693,-8.1693,-8.1696,-8.1695,-8.1732,-8.1718,-8.1689,-8.1687,-8.1685,-8.1684,0,-8.0821,-8.0842,-8.1007,-8.1076,-8.1096,-8.1205,-8.1263,-8.1354,-8.1374,-8.1501,-8.1531,-8.1564,-8.1676,-8.1691,-8.1822,-8.1826,-8.2005,-8.1989,-8.1981,-8.1979,-8.209,-8.208,-8.245,-8.2498,-8.2181,-8.2184,-8.2187,0,-8.0981,-8.1085,-8.1165,-8.1231,-8.1274,-8.138,-8.1445,-8.1448,-8.1517,-8.1607,-8.1687,-8.1796,-8.1884,-8.2064,-8.2099,-8.2199,-8.2185,-8.2308,-8.22,-8.22,-8.2188,-8.2182,-8.2192,-8.2329,-8.2333,-8.2335,-8.2338,0,-8.1262,-8.1267,-8.1362,-8.1462,-8.1541,-8.1619,-8.1693,-8.1748,-8.1761,-8.184,-8.1955,-8.2023,-8.2157,-8.2265,-8.2364,-8.2403,-8.2373,-8.2372,-8.2403,-8.2407,-8.2399,-8.2405,-8.2038,-8.2363,-8.236,-8.2359,-8.2357,-8.2356,-8.1462,-8.1553,-8.1624,-8.1732,-8.1788,-8.1858,-8.1946,-8.1978,-8.2075,-8.2185,-8.2181,-8.2307,-8.2376,-8.2506,-8.2552,-8.265,-8.261,-8.2655,-8.2667,-8.2678,-8.269,-8.2383,-8.2668,-8.2668,-8.2667,-8.2666,-8.2666,0,-8.1742,-8.1786,-8.1885,-8.1989,-8.2074,-8.2039,-8.2119,-8.2192,-8.2304,-8.2371,-8.2459,-8.2591,-8.2696,-8.2739,-8.2842,-8.2913,-8.2902,-8.294,-8.2935,-8.2945,-8.272,-8.2682,-8.2947,-8.2947,-8.2947,-8.2947,-8.2947,-8.2947,-8.1898,-8.205,-8.2063,-8.2243,-8.2285,-8.241,-8.2459,-8.2523,-8.2577,-8.2726,-8.2814,-8.2842,-8.2899,-8.3007,-8.3102,-8.3111,-8.3151,-8.3196,-8.3199,-8.2989,-8.296,-8.2933,-8.2898,-8.3204,-8.3204,-8.3416,-8.3418,-8.342]}]]